Weather 🌤️

Recent data

Temperatures

Wind

Pressure

Humidity & Precipitation

Last data
obsTime qcStatus tempAvg heatindexAvg windspeedAvg windgustAvg winddirAvg pressureAvg humidityAvg precipRate precipTotal
2026-09-02 08:04:48 0 18.6 18.6 0.4 2.9 194 1000.51 61 0 0
2026-09-02 07:59:53 0 18.5 18.5 0.5 2.9 186 1000.85 61 0 0
2026-09-02 07:54:53 0 18.6 18.6 0.1 2.9 192 1000.85 61 0 0
2026-09-02 07:49:53 0 18.6 18.6 0.1 2.9 214 1000.68 61 0 0
2026-09-02 07:44:53 0 18.6 18.6 1.1 2.9 212 1000.68 60.5 0 0
2026-09-02 07:39:53 0 18.6 18.6 0.5 2.9 170 1000.51 60.7 0 0
2026-09-02 07:34:51 0 18.5 18.5 0 2.9 172 1000.17 61 0 0
2026-09-02 07:29:55 0 18.5 18.5 0 2.9 173 1000.51 61 0 0
2026-09-02 07:24:54 0 18.4 18.4 0 2.9 173 1000.17 60.8 0 0
2026-09-02 07:19:53 0 18.5 18.5 0 2.9 173 1000.17 61 0 0
2026-09-02 07:14:54 0 18.4 18.4 0.2 2.9 171 1000.17 60 0 0
2026-09-02 07:09:53 0 18.4 18.4 0.6 2.9 165 1000.17 60 0 0

Hourly data

Temperatures

Wind

Pressure

Humidity & Precipitation

Last data
obsTime qcStatus tempAvg heatindexAvg windspeedAvg windgustAvg winddirAvg pressureAvg humidityAvg precipRate precipTotal
2026-09-02 07:59:53 0 18.5 18.5 0.3 2.9 185 1000.51 60.7 0 0
2026-09-02 06:59:52 0 18.8 18.8 0.5 2.6 177 1000 59.3 0 0
2026-09-02 05:59:56 0 19.7 19.7 0.6 4 215 1000.17 56.8 0 0
2026-09-02 04:59:54 0 20.3 20.3 1.1 4.2 226 1000 55.3 0 0
2026-09-02 03:59:53 0 20.9 20.8 1.6 5.9 227 1000 53.7 0 0
2026-09-02 02:59:54 0 21.4 21 1.1 4.2 227 1000 52.5 0 0
2026-09-02 01:59:56 0 22 21.6 1.6 6.2 222 1000 51.6 0 0
2026-09-02 00:59:56 0 22.6 22.2 2.1 7.6 229 1000 49.8 0 0
2026-09-01 23:59:56 0 23.1 22.7 3.7 7 227 999.66 47.6 0 0
2026-09-01 22:59:51 0 23.8 23.5 2.6 6.1 227 999.66 46 0 0
2026-09-01 21:59:56 0 24.6 24.2 2.1 5.3 227 999.32 43.3 0 0
2026-09-01 20:59:56 0 25.3 24.9 1.1 6.3 236 998.65 41.4 0 0
2026-09-01 19:59:53 1 25.9 25.7 3.4 10.8 288 998.31 43.8 0 0
2026-09-01 18:59:55 1 26.2 26.1 3.1 10.1 251 998.31 46.1 0 0
2026-09-01 17:59:54 1 26.1 26 4.1 11.4 249 998.65 46.9 0 0
2026-09-01 16:59:53 1 25.8 25.7 3.8 10.7 257 998.99 48.7 0 0
2026-09-01 15:59:56 1 25.2 25.1 3.6 10.9 264 999.32 50.3 0 0
2026-09-01 14:59:55 1 24.7 24.5 3.7 8.8 251 1000 52.1 0 0
2026-09-01 13:59:55 1 24.2 24 3.2 7.5 213 1000.34 53.5 0 0
2026-09-01 12:59:55 1 23.4 23.3 3.1 7.2 201 1001.02 56 0 0
2026-09-01 11:59:55 1 22 21.8 3 9.6 218 1001.36 59.9 0 0
2026-09-01 10:59:55 1 19.8 19.8 2.2 5.8 201 1001.53 63.6 0 0
2026-09-01 09:59:55 1 18.3 18.3 1.1 3.9 189 1001.53 66.2 0 0
2026-09-01 08:59:56 1 17.4 17.4 0.4 2.9 184 1001.69 67 0 0